EDT,Max TemperatureF,Mean TemperatureF,Min TemperatureF,Max Dew PointF,MeanDew PointF,Min DewpointF,Max Humidity, Mean Humidity, Min Humidity, Max Sea Level PressureIn, Mean Sea Level PressureIn, Min Sea Level PressureIn, Max VisibilityMiles, Mean VisibilityMiles, Min VisibilityMiles, Max Wind SpeedMPH, Mean Wind SpeedMPH, Max Gust SpeedMPH,PrecipitationIn, CloudCover, Events, WindDirDegrees
2013-5-1,62,50,39,48,42,33,90,74,54,30.47,30.44,30.36,10,10,10,13,4,22,0.00,0,,130
2013-5-2,66,52,39,47,40,35,100,71,37,30.46,30.42,30.36,10,8,2,12,2,,0.00,1,,123
2013-5-3,59,52,44,43,40,37,85,67,54,30.47,30.43,30.36,10,10,10,20,11,29,0.00,3,,21
2013-5-4,60,50,41,41,37,31,86,64,36,30.34,30.31,30.28,10,10,10,20,9,25,0.00,0,,34
2013-5-5,57,48,39,43,40,37,93,76,51,30.31,30.28,30.24,10,10,8,13,7,20,0.00,2,,65
2013-5-6,63,54,44,49,45,39,100,85,60,30.29,30.22,30.18,10,6,0,10,5,,0.00,5,Fog,140
2013-5-7,64,53,42,58,49,42,100,92,72,30.19,30.17,30.14,10,6,0,12,2,,0.00,5,Fog,126
2013-5-8,69,60,55,61,58,54,100,93,79,30.18,30.11,30.05,10,6,0,17,7,26,0.07,7,Fog-Rain,122
2013-5-9,66,58,51,59,56,52,100,95,78,30.04,29.94,29.88,10,4,0,12,3,16,0.05,8,Fog-Rain-Thunderstorm,136
2013-5-10,72,61,51,58,54,50,100,85,54,29.97,29.94,29.91,10,7,0,13,4,24,0.00,2,Fog,224
2013-5-11,62,56,53,58,56,53,100,95,82,29.96,29.82,29.72,10,4,0,16,8,24,0.44,7,Fog-Rain-Thunderstorm,180
2013-5-12,64,58,52,59,52,35,100,86,49,29.84,29.67,29.61,10,4,0,16,6,26,0.01,5,Fog-Rain,207
2013-5-13,55,50,45,34,30,26,58,46,39,30.03,29.95,29.86,10,10,10,17,7,31,0.00,1,,254
2013-5-14,55,48,42,35,31,28,74,51,35,30.06,30.03,29.99,10,10,10,12,8,18,0.00,4,,309
2013-5-15,60,48,39,52,46,38,94,81,55,30.07,29.92,29.70,10,9,4,18,7,29,0.02,4,Rain,184
2013-5-16,72,61,51,50,48,42,96,65,35,29.80,29.72,29.68,10,9,4,13,5,24,0.00,0,,226
2013-5-17,69,56,48,47,44,41,83,62,42,30.23,30.02,29.81,10,10,10,13,6,22,0.00,1,,1
2013-5-18,66,55,44,50,47,41,93,74,48,30.31,30.28,30.23,10,10,10,12,3,20,0.00,1,,216
2013-5-19,64,56,48,54,51,45,100,87,60,30.36,30.30,30.23,10,6,2,13,4,,0.15,5,Rain,161
2013-5-20,71,62,55,63,58,55,100,92,73,30.20,30.07,29.95,10,5,0,10,8,21,0.08,5,Fog-Rain,189
2013-5-21,73,64,55,65,59,53,100,91,73,29.99,29.94,29.86,10,5,0,15,3,22,0.01,3,Fog-Rain-Thunderstorm,142
2013-5-22,68,60,51,61,55,50,100,93,78,29.98,29.94,29.90,10,6,0,15,8,28,0.00,7,Fog-Rain,154
2013-5-23,64,61,59,61,60,57,100,96,90,29.96,29.93,29.86,6,2,0,15,10,32,0.03,8,Fog-Rain,197
2013-5-24,66,58,51,63,58,49,100,97,87,29.85,29.75,29.69,10,4,0,15,10,24,0.70,7,Fog-Rain,194
2013-5-25,53,48,42,49,46,38,100,90,79,29.79,29.74,29.71,10,6,2,20,12,29,0.13,8,Rain,329
2013-5-26,59,50,42,41,38,36,81,66,49,30.14,29.89,29.76,10,10,10,21,12,33,0.00,6,Rain,295
2013-5-27,70,57,45,44,40,35,83,56,30,30.17,30.14,30.10,10,10,10,13,5,24,0.00,0,,250
2013-5-28,66,54,45,55,49,42,100,78,50,30.24,30.21,30.18,10,9,3,9,3,,0.00,3,Rain,175
2013-5-29,68,62,55,61,57,55,100,92,78,30.20,30.11,30.03,10,6,2,14,9,25,0.27,6,Rain-Thunderstorm,174
2013-5-30,81,69,57,69,62,57,100,79,60,30.11,30.07,30.04,10,8,3,9,3,17,0.06,1,Rain-Thunderstorm,199
2013-5-31,84,74,63,67,63,59,93,69,49,30.10,30.05,29.99,10,9,4,12,3,17,0.00,0,,198